Погода в Куймани

Россия / Липецкая область     52°51′51″N   39°16′45″E
темп.,
°C
ветер,
м/с
пор.,
м/с
влажн.,
%
обл.,
%
осадки,
мм/ч
давл.,
гПа
погр.,
м
13 апреля, вт
вт1300:00+12юв5146583 0.0 1026278
03:00+10вюв4127265 0.0 1026218
06:00+9вюв41074100 0.0 1026171
09:00+14юв6105263 0.0 1026361
12:00+19юв6103530 0.0 10251201
15:00+20юв8112651 0.0 10241710
18:00+19юв612321 0.0 1023502
21:00+15юв615446 0.0 1023378
14 апреля, ср
ср1400:00+12юв51354100 0.0 1023281
03:00+10вюв41063100 0.0 1022202
06:00+9вюв4970100 0.0 1022171
09:00+13юв5954100 0.0 1021355
12:00+17юв6835100 0.0 1019922
15:00+19юв78275 0.0 10182006
18:00+17юв473383 0.0 1017242
21:00+14вюв354499 0.0 101770
15 апреля, чт
чт1500:00+11юв3857100 0.0 1017154
03:00+10юв3560100 0.0 101781
06:00+10вюв3565100 0.0 101679
09:00+13в4657100 0.0 1016256
12:00+18вюв5642100 0.0 10141028
15:00+19юв4535100 0.0 10132041
18:00+18юв3543100 0.0 1013144
21:00+13юз5870100 0.1 1014223
16 апреля, пт
пт1600:00+12ссв1177100 0.1 101414
03:00+11вюв2278100 0.1 101422
06:00+11всв2279100 0.0 101414
09:00+14ю116396 0.0 1015433
12:00+17всв015158 0.0 10151146
15:00+19вюв373999 0.0 10142320
18:00+19вюв354081 0.1 1014235
21:00+14юз4767100 0.6 1016209
17 апреля, сб
сб1700:00+12св2478100 1.1 1017165
03:00+11всв71187100 1.3 1018446
06:00+9св81389100 0.4 1019513
09:00+10всв9127898 0.6 1020750
12:00+12всв91170100 0.1 10211151
15:00+12всв7126392 0.1 10211074
18:00+12всв71248100 0.0 10221128
21:00+9всв7154935 0.0 1025605